When you browse on this site, cookies collect data to enhance your experience and personalize the content and advertising you see.
Visit our Privacy Policy to learn more. By continuing to use the site, you agree to this use of cookies and data.
EN

Hourly Weather Baramula

Today, 5 July, Sunday

Time Temperature Precipitation Wind Pressure Humidity
00:00 +23°C° 0.2 mm 2 mps 618 mmHg 52%
01:00 +21°C° 0.2 mm 2 mps 618 mmHg 59%
02:00 +21°C° 0.2 mm 1 mps 617 mmHg 65%
03:00 +20°C° 0.1 mm 1 mps 617 mmHg 65%
04:00 +20°C° 0.1 mm 1 mps 617 mmHg 66%
05:00 +18°C° 0 mm 0 mps 617 mmHg 67%
06:00 +21°C° 0.1 mm 1 mps 617 mmHg 63%
07:00 +22°C° 0.1 mm 1 mps 618 mmHg 60%
08:00 +24°C° 0.1 mm 1 mps 618 mmHg 57%
09:00 +25°C° 0.2 mm 1 mps 619 mmHg 52%
10:00 +26°C° 0.2 mm 1 mps 619 mmHg 48%
11:00 +28°C° 0.2 mm 2 mps 620 mmHg 43%
12:00 +28°C° 0.2 mm 2 mps 620 mmHg 41%
13:00 +29°C° 0.2 mm 2 mps 620 mmHg 39%
14:00 +30°C° 0.2 mm 1 mps 620 mmHg 37%
15:00 +29°C° 0.1 mm 1 mps 619 mmHg 39%
16:00 +29°C° 0.1 mm 1 mps 618 mmHg 40%
17:00 +29°C° 0.1 mm 1 mps 617 mmHg 41%
18:00 +26°C° 0.1 mm 2 mps 617 mmHg 50%
19:00 +24°C° 0.1 mm 2 mps 616 mmHg 58%
20:00 +21°C° 0.1 mm 2 mps 616 mmHg 67%
21:00 +20°C° 0 mm 2 mps 616 mmHg 67%
22:00 +20°C° 0 mm 2 mps 616 mmHg 67%
23:00 +19°C° 0 mm 2 mps 616 mmHg 68%

Tomorrow, 6 July, Monday

Time Temperature Precipitation Wind Pressure Humidity
00:00 +19°C° 0 mm 1 mps 616 mmHg 68%
01:00 +19°C° 0 mm 1 mps 616 mmHg 68%
02:00 +19°C° 0 mm 1 mps 616 mmHg 69%
03:00 +18°C° 0.1 mm 1 mps 616 mmHg 70%
04:00 +18°C° 0.1 mm 1 mps 616 mmHg 72%
05:00 +18°C° 0.1 mm 1 mps 616 mmHg 73%
06:00 +20°C° 0 mm 1 mps 617 mmHg 67%
07:00 +22°C° 0 mm 1 mps 618 mmHg 61%
08:00 +24°C° 0 mm 1 mps 619 mmHg 55%
09:00 +26°C° 0 mm 1 mps 619 mmHg 49%
10:00 +28°C° 0 mm 1 mps 620 mmHg 43%
11:00 +30°C° 0 mm 1 mps 620 mmHg 37%
12:00 +30°C° 0.1 mm 1 mps 620 mmHg 35%
13:00 +31°C° 0.1 mm 1 mps 620 mmHg 34%
14:00 +31°C° 0.1 mm 1 mps 619 mmHg 32%
15:00 +31°C° 0.1 mm 1 mps 619 mmHg 34%
16:00 +30°C° 0.1 mm 1 mps 618 mmHg 36%
17:00 +30°C° 0.1 mm 1 mps 618 mmHg 38%
18:00 +28°C° 0 mm 1 mps 618 mmHg 43%
19:00 +26°C° 0 mm 1 mps 617 mmHg 48%
20:00 +24°C° 0 mm 1 mps 617 mmHg 53%
21:00 +23°C° 0 mm 1 mps 617 mmHg 55%
22:00 +22°C° 0 mm 1 mps 617 mmHg 56%
23:00 +22°C° 0 mm 1 mps 618 mmHg 57%

Day after tomorrow, 7 July, Tuesday

Time Temperature Precipitation Wind Pressure Humidity
00:00 +21°C° 0.2 mm 1 mps 617 mmHg 61%
01:00 +20°C° 0.2 mm 1 mps 617 mmHg 64%
02:00 +20°C° 0.2 mm 1 mps 617 mmHg 68%
03:00 +19°C° 0 mm 1 mps 617 mmHg 68%
04:00 +19°C° 0 mm 1 mps 617 mmHg 68%
05:00 +19°C° 0 mm 1 mps 617 mmHg 69%
06:00 +21°C° 0 mm 1 mps 618 mmHg 63%
07:00 +24°C° 0 mm 1 mps 619 mmHg 57%
08:00 +26°C° 0 mm 1 mps 620 mmHg 51%
09:00 +28°C° 0 mm 1 mps 621 mmHg 46%
10:00 +30°C° 0 mm 1 mps 621 mmHg 41%
11:00 +31°C° 0 mm 1 mps 622 mmHg 36%
12:00 +32°C° 0 mm 1 mps 622 mmHg 34%
13:00 +33°C° 0 mm 1 mps 622 mmHg 31%
14:00 +34°C° 0 mm 1 mps 622 mmHg 29%
15:00 +33°C° 0 mm 1 mps 621 mmHg 31%
16:00 +32°C° 0 mm 1 mps 621 mmHg 33%
17:00 +32°C° 0 mm 1 mps 620 mmHg 35%
18:00 +29°C° 0 mm 2 mps 620 mmHg 40%
19:00 +27°C° 0 mm 2 mps 619 mmHg 45%
20:00 +25°C° 0 mm 2 mps 618 mmHg 50%
21:00 +24°C° 0 mm 2 mps 619 mmHg 51%
22:00 +24°C° 0 mm 2 mps 619 mmHg 52%
23:00 +23°C° 0 mm 2 mps 620 mmHg 53%

8 July, Wednesday

Time Temperature Precipitation Wind Pressure Humidity
00:00 +23°C° 0 mm 1 mps 619 mmHg 54%
01:00 +22°C° 0 mm 1 mps 619 mmHg 56%
02:00 +22°C° 0 mm 1 mps 619 mmHg 57%
03:00 +22°C° 0 mm 1 mps 619 mmHg 58%
04:00 +21°C° 0 mm 1 mps 619 mmHg 59%
05:00 +21°C° 0 mm 1 mps 619 mmHg 60%
06:00 +23°C° 0 mm 1 mps 619 mmHg 55%
07:00 +26°C° 0 mm 1 mps 620 mmHg 50%
08:00 +28°C° 0 mm 1 mps 621 mmHg 44%
09:00 +30°C° 0 mm 1 mps 621 mmHg 40%
10:00 +31°C° 0 mm 1 mps 622 mmHg 37%
11:00 +34°C° 0 mm 2 mps 622 mmHg 33%
12:00 +34°C° 0 mm 2 mps 622 mmHg 32%
13:00 +35°C° 0 mm 2 mps 621 mmHg 31%
14:00 +36°C° 0 mm 2 mps 621 mmHg 31%
15:00 +35°C° 0 mm 2 mps 620 mmHg 34%
16:00 +34°C° 0 mm 3 mps 620 mmHg 37%
17:00 +33°C° 0 mm 3 mps 619 mmHg 40%
18:00 +30°C° 0 mm 3 mps 618 mmHg 48%
19:00 +27°C° 0 mm 3 mps 618 mmHg 56%
20:00 +25°C° 0 mm 2 mps 617 mmHg 64%
21:00 +24°C° 0 mm 2 mps 617 mmHg 65%
22:00 +24°C° 0 mm 2 mps 617 mmHg 66%
23:00 +23°C° 0 mm 2 mps 618 mmHg 67%

9 July, Thursday

Time Temperature Precipitation Wind Pressure Humidity
00:00 +23°C° 0 mm 1 mps 617 mmHg 68%
01:00 +22°C° 0 mm 1 mps 617 mmHg 69%
02:00 +22°C° 0 mm 1 mps 617 mmHg 69%
03:00 +21°C° 0 mm 1 mps 617 mmHg 70%
04:00 +21°C° 0 mm 1 mps 616 mmHg 71%
05:00 +21°C° 0 mm 1 mps 616 mmHg 71%
06:00 +23°C° 0 mm 1 mps 617 mmHg 65%
07:00 +25°C° 0 mm 1 mps 618 mmHg 58%
08:00 +28°C° 0 mm 1 mps 618 mmHg 51%
09:00 +29°C° 0.1 mm 1 mps 619 mmHg 47%
10:00 +31°C° 0.1 mm 1 mps 619 mmHg 43%
11:00 +33°C° 0.1 mm 1 mps 619 mmHg 38%
12:00 +34°C° 0.2 mm 2 mps 619 mmHg 38%
13:00 +34°C° 0.2 mm 2 mps 618 mmHg 37%
14:00 +35°C° 0.2 mm 2 mps 618 mmHg 37%
15:00 +32°C° 0.7 mm 2 mps 617 mmHg 42%
16:00 +30°C° 0.7 mm 3 mps 616 mmHg 48%
17:00 +29°C° 0.7 mm 3 mps 615 mmHg 53%
18:00 +27°C° 0.2 mm 3 mps 615 mmHg 58%
19:00 +25°C° 0.2 mm 2 mps 615 mmHg 63%
20:00 +23°C° 0.2 mm 2 mps 614 mmHg 68%
21:00 +23°C° 0.6 mm 2 mps 615 mmHg 72%
22:00 +21°C° 0.6 mm 2 mps 615 mmHg 76%
23:00 +22°C° 0.6 mm 1 mps 616 mmHg 80%

10 July, Friday

Time Temperature Precipitation Wind Pressure Humidity
00:00 +21°C° 0.8 mm 1 mps 615 mmHg 81%
01:00 +21°C° 0.8 mm 1 mps 615 mmHg 82%
02:00 +20°C° 0.8 mm 1 mps 615 mmHg 83%
03:00 +20°C° 0 mm 1 mps 615 mmHg 84%
04:00 +19°C° 0 mm 1 mps 614 mmHg 84%
05:00 +19°C° 0 mm 1 mps 614 mmHg 84%
06:00 +19°C° 0 mm 0 mps 615 mmHg 78%
07:00 +21°C° 0 mm 0 mps 616 mmHg 72%
08:00 +23°C° 0 mm 0 mps 616 mmHg 66%
09:00 +26°C° 0.2 mm 1 mps 617 mmHg 59%
10:00 +28°C° 0.2 mm 1 mps 617 mmHg 52%
11:00 +30°C° 0.2 mm 1 mps 618 mmHg 45%
12:00 +31°C° 0.2 mm 1 mps 618 mmHg 43%
13:00 +32°C° 0.2 mm 1 mps 618 mmHg 41%
14:00 +32°C° 0.2 mm 1 mps 617 mmHg 38%
15:00 +31°C° 0.3 mm 2 mps 617 mmHg 41%
16:00 +31°C° 0.3 mm 2 mps 616 mmHg 43%
17:00 +30°C° 0.3 mm 3 mps 615 mmHg 46%
18:00 +28°C° 0.1 mm 3 mps 615 mmHg 53%
19:00 +25°C° 0.1 mm 2 mps 614 mmHg 61%
20:00 +23°C° 0.1 mm 2 mps 614 mmHg 68%
21:00 +21°C° 0 mm 2 mps 614 mmHg 69%
22:00 +21°C° 0 mm 2 mps 614 mmHg 70%
23:00 +20°C° 0 mm 2 mps 614 mmHg 72%
Show more